�������r�C�����j�^�v���󋵏��
Date,Time,5�C6���@���p�r�C��,����,����(m/s)
2022/06/06,00:00,3.8,�k�k��,4.8
2022/06/06,00:10,3.8,�k�k��,5.5
2022/06/06,00:20,3.8,�k�k��,5.2
2022/06/06,00:30,3.9,�k�k��,4.8
2022/06/06,00:40,3.7,�k,4.9
2022/06/06,00:50,3.8,�k�k��,5.1
2022/06/06,01:00,3.8,�k�k��,4.8
2022/06/06,01:10,3.9,�k�k��,5.4
2022/06/06,01:20,4.0,�k�k��,5.2
2022/06/06,01:30,3.9,�k�k��,5.6
2022/06/06,01:40,3.9,�k�k��,6.4
2022/06/06,01:50,3.9,�k�k��,5.4
2022/06/06,02:00,3.9,�k�k��,5.9
2022/06/06,02:10,3.8,�k�k��,6.1
2022/06/06,02:20,4.0,�k�k��,7.2
2022/06/06,02:30,3.7,�k��,7.2
2022/06/06,02:40,3.9,�k��,6.5
2022/06/06,02:50,3.8,�k�k��,5.7
2022/06/06,03:00,3.8,�k�k��,7.5
2022/06/06,03:10,4.0,�k��,7.3
2022/06/06,03:20,3.9,�k��,8.0
2022/06/06,03:30,3.9,�k��,9.3
2022/06/06,03:40,3.7,�k��,8.7
2022/06/06,03:50,3.9,�k��,9.1
2022/06/06,04:00,3.9,�k��,9.1
2022/06/06,04:10,3.9,�k��,9.2
2022/06/06,04:20,3.8,���k��,9.3
2022/06/06,04:30,3.8,���k��,8.4
2022/06/06,04:40,3.8,�k��,8.8
2022/06/06,04:50,3.8,�k��,8.0
2022/06/06,05:00,3.7,�k��,8.7
2022/06/06,05:10,3.9,�k��,9.0
2022/06/06,05:20,3.9,�k�k��,8.2
2022/06/06,05:30,3.8,�k��,8.5
2022/06/06,05:40,3.7,�k�k��,9.1
2022/06/06,05:50,3.9,�k�k��,8.9
2022/06/06,06:00,3.9,�k�k��,8.6
2022/06/06,06:10,3.9,�k�k��,8.7
2022/06/06,06:20,3.9,�k�k��,9.4
2022/06/06,06:30,3.7,�k�k��,7.2
2022/06/06,06:40,3.9,�k�k��,6.7
2022/06/06,06:50,3.8,�k�k��,5.8
2022/06/06,07:00,3.9,�k�k��,6.8
2022/06/06,07:10,3.9,�k�k��,7.6
2022/06/06,07:20,3.7,�k�k��,7.9
2022/06/06,07:30,3.9,�k�k��,7.9
2022/06/06,07:40,3.8,�k�k��,8.1
2022/06/06,07:50,3.9,�k�k��,7.9
2022/06/06,08:00,3.8,�k�k��,7.6
2022/06/06,08:10,3.8,�k�k��,8.4
2022/06/06,08:20,3.8,�k�k��,8.4
2022/06/06,08:30,3.9,�k�k��,8.7
2022/06/06,08:40,3.8,-,CALM
2022/06/06,08:50,3.9,�k��,6.6
2022/06/06,09:00,3.9,�k�k��,10.0
2022/06/06,09:10,3.9,�k��,7.8
2022/06/06,09:20,3.8,�k��,7.4
2022/06/06,09:30,3.8,�k��,9.0
2022/06/06,09:40,3.6,�k��,8.4
2022/06/06,09:50,3.8,�k�k��,9.0
2022/06/06,10:00,4.0,�k��,8.7
2022/06/06,10:10,3.8,�k��,6.9
2022/06/06,10:20,3.8,�k�k��,8.6
2022/06/06,10:30,3.9,�k�k��,8.4
2022/06/06,10:40,3.9,�k�k��,10.0
2022/06/06,10:50,3.6,�k�k��,8.9
2022/06/06,11:00,3.8,�k��,11.0
2022/06/06,11:10,3.9,�k��,8.7
2022/06/06,11:20,3.9,�k��,9.9
2022/06/06,11:30,4.0,�k��,9.3
2022/06/06,11:40,3.8,�k�k��,8.6
2022/06/06,11:50,3.8,�k�k��,9.3
2022/06/06,12:00,4.0,�k��,9.6
2022/06/06,12:10,3.7,-,CALM
2022/06/06,12:20,3.8,�k�k��,6.3
2022/06/06,12:30,3.8,�k�k��,8.4
2022/06/06,12:40,3.9,�k�k��,8.8
2022/06/06,12:50,3.9,�k�k��,8.7
2022/06/06,13:00,3.9,�k�k��,9.5
2022/06/06,13:10,3.9,�k�k��,8.6
2022/06/06,13:20,3.8,���k��,5.7
2022/06/06,13:30,3.8,-,CALM
2022/06/06,13:40,3.8,�k�k��,4.5
2022/06/06,13:50,3.8,�k,6.6
2022/06/06,14:00,3.9,�k,7.3
2022/06/06,14:10,3.9,�k,6.0
2022/06/06,14:20,3.7,�k�k��,8.1
2022/06/06,14:30,3.8,�k�k��,6.0
2022/06/06,14:40,4.0,�k,9.4
2022/06/06,14:50,3.7,�k,8.4
2022/06/06,15:00,3.7,�k,9.1
2022/06/06,15:10,3.9,�k�k��,8.1
2022/06/06,15:20,4.0,�k,8.2
2022/06/06,15:30,3.7,�k,7.0
2022/06/06,15:40,3.8,�k,6.9
2022/06/06,15:50,3.7,�k,6.8
2022/06/06,16:00,3.9,�k,7.1
2022/06/06,16:10,4.0,�k�k��,6.1
2022/06/06,16:20,3.8,�k�k��,6.7
2022/06/06,16:30,3.9,�k�k��,7.1
2022/06/06,16:40,3.8,�k�k��,7.9
2022/06/06,16:50,4.0,�k��,5.7
2022/06/06,17:00,3.8,�k��,5.9
2022/06/06,17:10,4.0,�k��,6.2
2022/06/06,17:20,3.9,�k��,6.8
2022/06/06,17:30,3.8,�k��,6.3
2022/06/06,17:40,4.0,�k��,7.7
2022/06/06,17:50,4.0,�k�k��,6.4
2022/06/06,18:00,3.9,�k��,6.1
2022/06/06,18:10,3.8,�k��,5.5
2022/06/06,18:20,4.0,�k��,6.0
2022/06/06,18:30,3.9,�k��,7.1
2022/06/06,18:40,3.9,�k��,7.4
2022/06/06,18:50,3.8,�k��,6.2
2022/06/06,19:00,3.9,�k��,7.4
2022/06/06,19:10,3.7,�k��,5.9
2022/06/06,19:20,3.8,�k��,5.2
2022/06/06,19:30,3.7,�k��,6.2
2022/06/06,19:40,3.9,�k�k��,6.1
2022/06/06,19:50,3.9,�k�k��,7.3
2022/06/06,20:00,3.8,�k�k��,7.1
2022/06/06,20:10,3.9,�k�k��,6.4
2022/06/06,20:20,4.0,�k�k��,5.8
2022/06/06,20:30,3.9,�k��,4.1
2022/06/06,20:40,3.9,�k�k��,5.4
2022/06/06,20:50,4.0,�k�k��,4.4
2022/06/06,21:00,3.9,�k�k��,4.9
2022/06/06,21:10,3.8,�k��,4.4
2022/06/06,21:20,3.8,�k��,5.3
2022/06/06,21:30,3.8,�k�k��,6.0
2022/06/06,21:40,3.8,�k�k��,6.1
2022/06/06,21:50,4.0,�k�k��,6.6
2022/06/06,22:00,3.7,�k�k��,7.4
2022/06/06,22:10,3.7,�k�k��,7.1
2022/06/06,22:20,3.9,�k,6.9
2022/06/06,22:30,3.9,�k,6.4
2022/06/06,22:40,3.8,�k,5.9
2022/06/06,22:50,3.9,�k,4.2
2022/06/06,23:00,3.8,�k�k��,4.9
2022/06/06,23:10,4.0,�k�k��,4.4
2022/06/06,23:20,3.9,�k,5.7
2022/06/06,23:30,4.0,�k��,6.2
2022/06/06,23:40,3.7,�k��,8.8
2022/06/06,23:50,3.8,�k��,9.1
